Wind_Speed
44 44 42 40 39 41 43 43 43 43 43 43 44 44 44 44 44 42 42 41 41 40 40 39 39 39 38 35 34 34 35 36 37 38 39 40 41 41 41 42 43 44 44 44 45 46 46 46 46 46 47 47 46 45 43 42 41 40 39 38 37 37 38 38 39 39 38 36 35 34 33 33 33 32 31 31 31 31 31 31 30 30 30 31 31 32
46 45 42 41 42 43 44 45 45 45 45 45 46 46 46 46 45 43 42 41 41 41 41 40 40 40 38 35 34 35 35 35 36 35 36 37 37 37 37 38 39 39 39 39 40 41 41 41 41 41 42 41 41 40 39 38 37 36 35 35 34 34 35 35 36 36 35 34 33 32 31 31 30 30 30 30 30 30 30 29 29 30 30 30 31 31
45 44 41 42 44 44 45 46 46 46 47 47 47 47 47 47 45 44 43 42 42 43 43 42 42 42 40 38 37 37 38 37 36 35 35 35 34 34 34 35 35 34 35 36 36 36 36 37 37 38 38 37 37 37 36 35 34 33 33 33 32 32 32 33 34 33 32 31 30 30 29 29 29 29 29 29 29 29 29 29 29 29 29 30 30 30
43 41 40 42 43 44 45 46 47 47 48 48 47 48 48 47 46 44 44 44 44 45 44 44 44 44 43 41 39 40 40 39 38 37 36 35 34 34 34 34 34 33 33 33 33 33 33 34 35 35 35 35 35 35 33 32 32 32 32 31 31 30 30 31 31 31 30 29 28 28 28 28 28 28 28 28 28 28 28 28 29 29 29 30 30 30
40 39 39 40 41 42 43 44 46 47 47 47 47 48 48 47 46 45 45 45 45 45 45 45 45 45 45 44 43 42 42 42 41 40 39 38 36 35 35 35 34 33 33 33 33 33 33 34 34 34 34 34 34 32 30 30 30 31 31 31 29 29 29 29 30 29 29 28 28 28 28 28 28 27 27 28 28 28 29 29 29 29 29 30 30 30
38 37 37 37 38 39 40 41 43 44 44 45 46 47 47 46 46 46 46 46 46 45 45 45 45 46 46 47 46 45 45 45 44 43 42 41 39 37 36 35 34 34 36 36 36 36 36 36 35 34 34 34 33 30 28 28 28 29 30 29 28 28 28 28 29 29 28 29 29 30 29 29 28 28 28 28 29 29 30 30 30 29 29 30 30 29
37 36 36 36 37 38 39 40 40 40 41 42 43 43 44 44 44 45 46 46 46 45 45 45 45 46 47 48 48 48 48 47 46 45 44 42 41 39 39 38 37 37 39 40 40 41 40 38 37 37 36 35 34 31 29 27 27 28 29 29 28 28 28 28 29 29 29 29 31 31 31 31 30 29 29 29 29 30 31 31 31 30 30 30 30 29
38 37 37 37 38 39 39 39 39 39 39 40 40 40 41 41 41 43 44 44 44 45 45 45 46 45 47 50 50 49 50 49 48 47 45 44 43 43 42 41 41 41 43 43 44 44 43 40 39 40 39 38 37 34 32 30 29 29 29 29 29 30 30 30 30 30 30 30 31 31 31 31 32 32 31 30 30 30 31 31 31 31 31 31 31 30
41 39 39 40 41 41 41 41 40 40 40 41 40 40 40 39 39 40 40 41 42 43 44 45 46 45 46 50 52 50 50 49 48 48 47 45 45 45 44 43 45 47 47 47 48 48 46 42 42 41 41 40 40 39 37 35 34 33 32 32 33 33 33 33 33 33 32 32 32 32 31 31 32 33 33 33 32 32 31 31 31 32 32 32 32 31
43 42 41 42 44 44 43 43 43 43 43 43 43 42 41 40 40 40 39 40 40 40 42 43 43 43 44 47 51 51 49 49 49 49 48 47 47 46 45 46 48 49 50 51 51 51 48 45 44 44 43 43 42 41 40 39 39 38 37 37 37 37 37 36 36 35 35 35 34 34 33 33 33 33 34 35 35 34 33 32 32 32 33 33 33 32
44 45 44 45 46 46 46 46 46 46 46 46 45 45 44 43 42 42 42 41 40 40 42 42 40 40 41 44 48 50 50 50 50 50 50 49 49 48 48 48 49 50 52 53 52 51 50 48 48 47 46 46 45 44 43 42 42 42 41 41 40 40 40 39 38 37 37 37 37 37 36 36 35 34 34 35 36 36 35 34 33 33 34 34 34 34
46 46 46 47 48 48 48 48 48 48 49 48 48 47 47 46 45 45 45 44 43 43 44 43 41 40 40 42 45 48 49 49 50 50 50 50 50 50 50 50 50 50 52 54 52 52 51 50 49 49 48 48 48 48 47 46 46 45 45 44 43 43 42 41 41 40 39 39 39 39 39 39 38 37 36 36 36 36 36 36 35 35 35 35 36 36
48 48 48 48 49 49 49 49 50 50 50 50 50 49 49 49 48 49 49 48 47 47 47 46 44 43 43 44 46 47 48 49 49 49 49 49 50 51 51 51 51 51 53 54 53 53 52 51 50 50 49 49 49 49 49 49 49 49 48 48 46 45 44 43 43 42 41 40 40 40 40 40 40 40 39 37 37 37 37 37 37 36 36 37 37 37
50 49 49 49 50 50 50 50 50 50 50 51 51 51 51 51 50 51 51 51 50 50 49 49 48 47 47 48 48 49 50 50 50 50 50 50 50 51 51 51 52 52 53 54 54 54 53 53 52 51 51 51 51 51 51 51 50 50 50 50 49 48 48 47 46 44 43 42 41 41 41 41 41 41 41 40 39 38 38 37 37 38 38 38 38 38
51 51 50 51 51 51 51 51 51 51 51 52 52 52 52 52 52 52 52 53 52 51 51 50 50 50 51 51 51 51 52 52 53 53 53 53 53 53 53 53 53 53 53 54 54 54 54 54 53 52 53 53 53 53 53 52 52 51 51 51 50 49 49 49 49 48 47 45 44 43 43 42 42 42 43 43 43 41 40 39 39 39 39 39 40 40
51 52 52 51 52 52 53 53 52 52 53 53 53 53 54 54 53 53 54 55 54 53 52 52 52 52 53 53 53 54 54 54 54 55 55 56 56 56 56 56 56 55 55 55 56 55 55 54 54 53 54 55 55 55 55 55 54 54 53 52 52 51 50 50 50 50 49 48 47 46 46 45 44 44 44 45 45 44 44 43 42 41 40 41 41 41
51 52 52 52 52 53 53 54 54 54 54 54 54 55 55 55 55 55 56 56 56 55 54 54 54 54 55 55 56 56 56 56 55 56 56 57 57 58 59 59 60 60 59 58 58 58 58 57 55 55 56 57 57 56 56 56 56 55 55 54 54 54 53 52 52 51 51 50 49 48 48 48 48 47 47 47 46 46 46 46 46 45 44 43 43 43
50 51 52 52 52 52 53 54 55 55 55 56 56 56 56 56 56 56 57 57 56 56 55 55 56 56 56 57 57 57 57 57 57 57 58 58 59 60 60 61 62 62 62 61 61 62 62 61 59 58 59 60 60 59 58 58 58 58 57 56 56 56 55 54 54 53 53 53 52 51 51 51 50 50 50 49 49 48 48 48 48 48 47 47 46 46
50 50 52 52 52 53 53 54 55 55 55 56 56 57 57 57 56 56 56 56 56 56 56 56 56 56 56 57 58 58 58 58 58 58 58 59 59 60 61 62 63 63 63 63 63 64 65 64 62 61 62 63 62 61 61 61 61 61 61 60 59 58 57 56 55 55 55 54 54 53 53 53 52 52 52 52 52 52 51 50 50 50 50 50 49 49
50 50 52 53 54 54 54 54 55 55 55 55 55 55 56 56 56 55 54 54 54 54 53 54 54 54 55 56 56 55 55 56 56 56 56 56 57 59 60 61 62 63 63 63 63 64 65 65 64 62 63 65 64 64 64 65 65 65 65 64 63 61 60 59 58 57 57 56 56 55 55 55 54 54 54 54 55 54 54 53 53 52 52 52 52 52
51 51 52 53 54 54 54 54 55 55 55 54 53 53 53 53 53 53 52 52 51 51 51 51 50 51 52 52 52 51 52 52 52 52 52 53 54 55 56 58 59 60 61 61 62 63 64 64 64 63 63 64 65 65 66 66 67 67 68 67 66 64 63 62 61 61 60 60 59 58 58 57 57 57 57 57 57 56 56 55 55 55 55 55 55 55
52 52 52 52 53 53 53 53 53 54 54 53 53 53 52 52 51 50 49 49 49 49 48 48 48 48 49 49 49 49 50 50 50 50 50 51 51 52 53 54 55 56 57 58 59 60 61 62 63 62 62 63 64 65 66 66 66 67 68 68 67 66 65 65 64 64 63 63 63 63 62 61 61 61 60 59 59 58 58 57 57 57 58 58 58 58
52 51 51 51 51 52 52 51 52 52 52 52 53 53 53 52 52 51 49 48 47 47 46 47 47 47 48 48 48 49 50 51 51 50 51 51 51 51 51 52 53 54 55 56 57 58 59 60 60 60 60 61 61 62 64 64 64 65 67 67 67 66 66 66 66 65 65 65 65 65 65 65 66 65 63 62 62 61 60 60 59 60 60 60 60 60
51 51 50 50 50 51 51 51 51 51 51 51 52 53 53 53 53 53 51 50 49 47 47 48 47 47 48 49 49 50 51 52 52 52 53 52 52 52 52 52 53 54 55 55 56 56 57 58 59 59 59 59 59 60 61 62 61 62 64 65 66 65 64 63 64 65 65 65 65 66 67 68 69 68 67 67 66 65 64 63 61 61 62 62 63 63
51 51 50 50 50 50 50 50 50 51 51 51 51 53 54 54 54 54 54 53 51 49 50 50 49 49 50 50 50 51 53 53 54 55 55 55 55 54 54 54 54 55 56 56 57 57 57 57 58 58 59 59 59 59 60 61 60 60 62 64 65 64 62 61 62 63 63 62 63 63 65 67 69 69 69 69 69 69 68 67 65 64 64 64 65 65
52 52 51 51 50 50 50 51 50 50 51 51 52 53 54 55 56 55 55 55 53 52 53 53 52 52 53 53 53 54 55 55 55 56 57 57 57 58 58 58 58 58 58 58 59 59 59 58 58 59 59 59 60 60 60 61 61 61 62 64 65 64 63 61 62 63 63 62 61 61 62 64 66 67 69 69 69 70 71 70 70 69 68 67 67 67
52 52 52 52 52 51 50 51 51 51 51 52 52 53 54 55 56 56 56 55 55 55 54 54 55 55 55 56 57 57 57 57 57 58 59 59 60 60 60 61 62 63 62 62 62 61 61 61 61 61 61 61 61 62 62 62 63 63 63 65 65 65 65 64 63 64 64 63 62 62 61 62 64 66 67 67 68 70 71 72 73 73 72 71 70 69
53 53 53 53 53 52 51 51 51 51 52 53 53 54 55 55 56 56 56 57 58 57 55 57 60 58 58 60 61 60 60 59 59 60 61 62 62 62 62 62 63 65 66 66 66 65 64 63 63 63 63 63 63 64 64 65 65 65 65 66 66 67 67 66 65 66 66 65 64 64 63 63 64 65 66 67 67 69 70 72 73 74 73 73 73 72
54 53 53 53 53 52 52 51 51 52 52 53 54 55 56 57 56 57 58 60 61 60 59 61 63 60 60 63 64 63 62 61 62 62 63 63 63 63 64 64 64 65 65 67 68 68 67 66 66 65 65 65 65 66 66 67 67 67 67 68 68 68 68 68 68 68 68 67 66 66 66 65 65 66 66 67 67 68 70 70 71 72 72 73 74 74
54 53 53 54 53 53 53 53 53 54 54 54 55 56 58 59 59 60 62 63 64 63 63 65 64 61 63 67 68 68 66 65 64 64 64 65 65 65 66 66 66 66 66 66 67 69 69 70 69 69 69 68 68 68 68 69 69 69 69 69 70 70 70 69 69 69 69 69 68 68 68 68 68 68 68 68 68 68 69 69 70 70 71 72 74 73
54 54 55 55 55 54 55 57 57 57 56 55 56 58 60 62 64 65 66 67 67 66 66 68 65 61 65 71 72 70 69 68 67 66 66 67 67 67 68 68 68 68 68 68 68 69 70 71 71 72 72 71 71 71 71 71 71 71 71 71 71 72 72 71 71 71 71 71 70 70 70 70 70 70 69 69 69 69 69 69 69 70 70 71 73 72
57 57 57 58 56 55 58 60 61 61 59 56 57 62 64 66 67 67 68 69 69 69 70 69 66 63 68 73 73 70 70 70 69 68 68 68 68 68 69 69 69 69 69 69 69 70 70 71 72 73 73 74 73 73 73 73 73 73 73 72 73 73 73 73 72 72 72 72 72 72 72 71 71 71 71 71 70 70 70 69 70 70 70 71 72 72
60 60 60 61 60 58 60 63 65 65 63 59 61 66 68 68 68 68 68 70 71 72 71 69 67 67 70 73 73 71 71 71 71 70 70 70 70 70 70 70 70 69 70 70 70 71 72 72 73 74 75 76 76 76 76 75 75 74 74 74 73 73 73 73 73 73 73 73 73 73 73 73 72 72 72 72 71 71 70 70 70 70 70 71 72 72
64 64 65 65 64 63 63 65 67 66 64 64 67 69 69 69 70 70 70 71 72 73 71 69 69 69 71 73 74 73 72 72 72 72 72 72 72 72 71 70 69 69 70 70 71 72 73 74 75 76 77 78 78 79 79 78 78 77 76 75 74 74 74 74 74 74 74 75 75 75 74 74 73 73 73 73 72 72 71 71 71 71 71 72 72 72
67 68 68 68 68 66 65 66 67 65 64 66 69 69 69 70 71 71 71 72 72 72 71 70 70 70 72 73 74 74 74 74 74 74 74 74 74 73 73 71 70 70 70 70 70 71 73 74 75 76 78 79 79 80 80 80 80 79 77 77 76 76 76 76 75 75 75 75 76 75 75 74 74 73 73 74 73 73 72 72 72 72 72 73 73 73
67 68 69 70 70 68 67 68 68 66 65 67 68 69 70 70 70 71 72 72 72 72 72 71 71 71 72 73 73 74 75 76 77 77 76 75 75 74 74 73 72 71 70 70 70 71 72 73 73 75 76 77 78 79 80 81 80 79 79 79 78 78 78 77 77 77 77 77 77 76 76 75 74 74 74 74 74 73 73 73 73 73 73 73 73 74
68 69 70 71 71 71 71 71 70 69 68 69 69 70 70 70 71 71 72 72 72 72 72 73 73 73 73 73 74 74 75 77 78 79 79 78 77 75 74 74 73 72 72 71 71 71 71 71 72 72 73 75 76 77 78 79 79 79 79 80 80 80 80 79 79 80 80 79 78 77 76 76 75 75 75 75 74 74 74 74 74 73 73 73 73 73
71 71 72 72 72 73 73 73 72 71 71 70 71 71 71 71 72 72 72 72 72 72 73 74 74 74 74 74 75 75 76 77 79 80 80 79 78 77 76 75 73 72 72 72 71 70 70 70 69 69 70 71 72 73 74 75 75 75 76 77 79 79 80 80 80 81 81 81 80 78 78 77 76 75 75 75 75 75 74 74 73 73 73 73 73 73
74 73 73 74 74 74 75 74 73 73 73 72 72 73 73 73 74 74 74 72 71 73 74 74 74 75 75 76 76 76 77 77 79 80 80 79 78 78 77 75 74 73 72 71 69 68 67 66 66 66 67 67 69 70 71 70 71 71 72 73 75 76 77 78 80 80 80 80 79 79 78 77 76 76 75 75 75 75 75 74 73 73 73 72 73 73
76 76 75 75 75 75 75 75 74 74 74 74 74 75 75 75 76 76 75 73 72 74 74 75 75 76 76 76 76 77 77 78 78 79 79 79 78 77 76 75 74 72 70 69 67 65 64 64 63 63 64 65 67 68 69 68 68 68 69 70 71 72 74 76 77 77 77 78 77 77 76 76 75 75 75 75 75 75 74 74 74 73 72 72 72 73
79 78 77 77 76 76 76 75 75 76 76 77 77 77 77 77 77 77 76 74 74 75 76 76 76 76 75 75 75 75 76 76 77 78 78 78 76 75 74 73 72 71 69 68 66 64 63 62 61 61 62 63 64 65 66 66 65 65 66 67 67 68 70 72 72 72 73 74 74 73 73 73 73 73 74 74 73 73 73 73 73 73 72 71 71 72
80 80 79 78 77 76 76 75 76 76 77 78 78 77 76 76 76 76 76 75 75 75 75 75 75 75 74 73 72 72 73 73 73 74 75 74 73 72 72 71 70 69 68 66 65 64 62 60 60 59 60 60 61 61 62 62 61 61 63 63 64 66 68 68 68 68 69 69 70 70 70 70 70 71 72 72 72 72 72 72 72 72 71 71 70 70
81 81 80 79 78 77 76 75 75 75 75 75 74 73 73 73 74 73 73 73 73 73 72 72 72 72 71 70 70 70 70 69 69 70 70 70 70 70 70 70 68 67 66 65 64 63 61 59 59 58 58 59 59 59 59 58 57 58 59 60 63 65 66 66 66 66 66 66 66 66 66 66 67 68 69 70 70 69 69 69 69 70 70 69 68 67
80 80 79 79 78 76 75 74 74 73 72 71 70 70 70 70 71 71 70 70 71 71 70 70 69 69 69 68 68 67 67 67 67 67 67 67 68 68 68 68 67 66 65 65 64 62 60 58 57 57 57 57 57 57 56 55 54 55 56 58 62 64 64 64 65 65 64 64 63 62 62 62 63 65 65 66 66 66 65 65 66 66 66 65 64 65
77 77 76 76 76 75 74 73 73 72 70 69 68 68 68 69 70 70 68 68 69 70 69 68 67 68 68 67 65 64 64 64 64 65 65 65 65 65 65 65 65 64 64 64 63 61 58 56 54 54 54 54 55 54 54 52 51 51 54 57 60 62 62 62 62 62 61 60 59 59 59 59 60 61 62 62 63 62 61 61 62 62 62 62 62 63
75 74 74 74 74 73 72 72 73 72 71 69 68 67 67 68 68 68 66 66 66 67 67 66 65 65 65 65 63 62 62 62 62 62 63 63 62 63 63 63 63 64 63 62 61 59 57 54 53 52 52 52 53 53 51 50 49 49 52 56 58 59 58 58 58 58 57 55 56 57 57 58 59 59 60 60 60 59 58 58 59 60 59 60 61 62
72 71 71 71 70 70 69 71 72 72 71 70 69 69 68 67 66 64 63 63 63 63 63 63 63 63 63 62 61 61 60 60 60 60 60 60 59 60 60 60 61 61 61 60 59 59 57 54 52 52 51 52 53 52 51 50 50 49 50 53 55 54 53 53 53 53 52 52 54 55 56 57 57 58 58 59 59 57 56 57 59 59 58 59 60 61
67 67 68 67 66 66 67 69 70 69 69 70 70 70 69 67 64 62 60 60 60 60 60 61 61 61 61 61 60 59 58 58 57 57 57 58 58 59 60 59 58 58 58 58 58 58 57 55 54 53 53 53 54 53 51 50 50 49 49 51 52 51 49 49 49 49 49 50 53 55 56 56 56 57 58 58 58 57 56 57 58 58 57 57 58 59
63 63 64 63 64 65 66 68 68 67 67 69 70 69 67 65 63 61 60 58 58 58 58 58 58 58 58 58 59 57 55 55 56 56 56 56 58 59 59 58 56 56 56 57 57 56 56 55 55 55 55 55 55 53 51 49 48 48 48 49 49 48 48 49 49 49 50 53 55 56 55 54 55 56 57 58 58 57 56 56 56 55 56 57 58 59
61 61 61 61 62 63 65 67 66 64 63 66 68 67 64 62 60 60 59 59 58 57 56 55 55 55 55 55 56 55 54 55 56 56 55 55 57 58 58 57 56 56 55 55 55 55 55 55 55 55 55 55 54 52 50 49 48 47 46 46 45 46 46 47 48 50 53 55 56 55 54 54 55 56 57 56 56 55 54 53 53 53 55 57 58 59
60 60 60 59 59 60 63 64 64 61 61 63 66 65 62 59 57 56 57 58 58 57 55 53 53 54 54 54 54 54 53 54 55 55 54 55 57 58 57 57 56 56 55 55 54 54 54 54 54 53 53 52 51 49 49 48 47 45 44 43 43 43 45 46 48 50 52 52 52 52 53 54 54 54 54 54 53 53 52 52 51 52 53 55 56 58
Wind_Direction
258 257 258 259 259 258 257 257 257 257 256 256 255 255 255 255 256 256 257 259 260 260 261 260 260 262 262 262 263 263 265 266 267 267 268 269 269 269 269 269 270 271 273 274 273 273 273 273 273 272 272 273 274 274 274 273 272 272 272 271 269 268 268 269 270 270 270 269 268 266 264 263 260 258 256 255 254 253 251 250 248 246 243 241 238 236
259 259 259 259 257 257 257 258 258 258 257 257 256 256 256 256 256 257 258 259 260 260 260 259 259 260 260 259 260 262 262 264 266 267 269 269 270 271 272 271 272 273 274 274 274 275 276 275 274 274 274 274 275 275 274 274 274 274 272 271 269 267 267 267 268 268 269 269 268 266 264 262 260 258 256 254 252 251 250 248 247 245 243 240 237 234
259 259 259 258 257 256 257 258 258 258 258 258 258 258 258 258 259 259 259 258 258 259 259 259 259 259 259 257 257 259 260 261 263 265 267 269 271 272 273 273 274 275 276 277 277 278 278 277 276 275 275 275 275 274 274 275 275 273 272 270 268 267 266 266 267 268 268 268 268 267 265 262 260 258 256 254 252 250 248 246 245 245 243 239 236 233
258 259 258 258 257 257 258 258 258 258 259 259 260 260 261 261 261 260 259 258 258 258 259 259 260 261 260 258 256 257 259 260 260 261 263 266 268 270 271 273 275 277 278 279 280 279 277 276 274 274 274 273 272 272 274 275 274 272 271 269 267 266 265 264 265 266 267 267 266 265 264 263 260 258 256 254 252 250 247 246 245 244 242 238 235 232
259 260 259 259 259 259 259 259 259 259 260 260 260 261 262 262 262 261 260 259 258 259 259 260 260 261 261 259 257 256 257 258 259 259 260 262 264 267 270 274 276 278 278 278 276 275 273 272 272 272 272 271 271 272 273 272 271 270 269 268 267 266 264 263 263 264 265 266 265 263 263 261 259 256 254 252 251 249 248 247 246 244 241 237 234 233
261 261 260 260 260 260 259 259 259 260 261 261 261 261 261 262 261 261 260 259 258 258 259 260 260 261 261 261 259 257 256 256 258 258 259 261 263 265 268 270 272 272 272 271 270 269 269 270 272 272 272 271 272 273 271 270 268 267 267 267 266 265 263 262 262 262 262 262 262 262 262 261 259 255 253 250 249 248 248 247 246 245 242 238 235 234
263 262 262 262 261 261 260 260 260 261 261 261 261 261 261 261 261 261 260 260 260 259 259 259 259 260 260 261 260 258 257 257 257 258 259 261 262 262 262 262 262 263 264 265 266 266 267 268 271 271 271 272 273 273 271 268 266 265 265 265 264 262 261 262 262 262 260 258 258 259 261 261 260 257 254 250 247 246 247 247 247 245 243 240 238 237
263 263 263 263 262 261 261 262 262 262 262 262 262 262 262 262 261 261 261 261 261 260 259 258 257 258 259 260 260 259 259 259 259 259 260 260 260 259 259 259 259 259 259 260 262 262 263 265 266 268 270 271 272 272 269 267 265 263 262 261 260 258 258 259 261 261 259 257 256 256 257 258 259 258 257 254 251 247 246 247 247 246 244 242 240 239
264 263 262 262 262 262 262 263 263 263 263 263 264 264 263 263 263 262 262 262 261 260 259 258 257 256 258 261 262 261 261 261 261 260 260 259 258 258 259 259 258 257 257 257 257 259 260 262 262 263 264 265 266 267 267 267 265 263 260 257 255 254 254 255 256 257 256 255 255 254 254 255 256 257 257 257 255 253 249 247 247 246 245 243 242 241
264 263 262 261 262 262 262 262 263 263 263 263 264 263 263 263 264 264 264 263 262 261 261 260 259 259 258 260 263 263 262 261 260 260 260 259 258 258 257 257 257 257 258 257 257 259 260 260 260 260 261 262 262 263 263 263 263 261 259 256 254 253 252 252 253 253 252 252 252 253 253 254 255 255 256 256 256 255 253 250 247 245 244 244 243 243
263 263 262 261 261 262 262 262 262 262 262 263 263 263 264 264 264 264 264 263 263 262 262 262 262 262 260 260 262 263 263 262 261 261 260 259 259 258 257 257 257 258 259 259 259 260 261 260 259 260 261 261 262 262 262 261 260 260 258 257 254 253 252 252 252 251 250 250 250 250 251 252 253 254 254 254 254 254 254 252 249 246 244 243 243 244
262 262 262 261 261 261 261 262 262 262 262 263 264 264 265 264 264 264 263 263 263 262 263 264 264 263 262 262 263 264 265 265 264 263 263 262 261 260 258 258 258 259 260 261 262 262 262 261 261 260 260 260 260 260 260 260 259 259 259 258 256 255 254 253 253 252 251 250 249 249 249 250 251 253 254 254 254 254 254 253 251 249 246 245 244 244
262 262 262 263 262 262 262 262 262 262 263 263 264 264 264 264 264 264 264 263 263 263 264 265 265 264 264 263 263 264 265 266 267 266 265 265 263 262 261 260 259 259 260 261 262 263 263 263 262 262 261 260 260 259 259 258 258 258 258 259 258 258 258 256 255 254 253 252 251 250 249 249 249 250 252 253 255 255 254 254 253 252 250 247 246 246
264 264 264 264 264 264 264 263 263 264 264 264 264 265 265 265 265 265 265 265 264 264 265 265 265 265 264 263 262 263 264 265 266 267 267 266 265 265 264 263 262 261 261 262 262 263 263 263 263 263 263 263 262 261 260 260 259 259 259 259 259 260 260 259 259 257 256 254 253 252 251 251 250 250 250 252 253 254 254 254 254 253 252 250 249 249
264 264 264 264 265 266 266 266 266 266 266 266 266 266 266 266 266 266 266 266 266 265 265 266 266 265 264 262 262 261 261 262 264 265 266 266 266 266 266 266 265 264 263 263 263 263 263 264 264 264 264 264 264 263 263 263 262 262 261 261 261 260 260 260 260 259 258 257 256 255 254 254 253 252 251 251 251 252 253 253 253 253 253 252 251 251
264 264 264 265 266 266 267 267 267 267 267 267 267 267 267 267 267 267 267 267 267 267 266 266 266 265 264 264 263 262 261 261 262 263 264 265 265 266 266 266 265 264 264 264 264 263 263 262 263 263 263 263 263 263 263 264 263 263 263 263 262 262 261 260 260 260 259 258 257 257 256 255 254 253 252 251 250 250 250 251 251 251 252 252 252 251
264 265 266 266 266 267 268 268 268 268 269 269 268 267 267 267 268 268 267 267 268 267 267 266 265 264 264 264 264 263 263 262 262 262 262 263 263 263 264 264 264 264 264 264 264 264 264 262 262 262 262 262 262 262 262 262 263 262 262 262 262 262 261 260 260 260 259 259 258 257 256 255 254 253 253 252 251 250 249 250 250 250 250 250 250 250
264 266 267 267 267 268 269 270 270 270 270 270 270 269 269 269 269 268 268 268 268 268 267 267 266 265 264 264 263 263 263 263 262 261 261 261 261 261 262 262 263 263 264 264 264 264 264 264 263 262 262 262 262 263 263 262 262 262 261 261 261 261 260 260 260 260 260 259 258 257 256 255 254 254 254 253 252 251 250 250 249 249 250 250 250 250
264 265 267 268 267 267 267 268 269 270 270 270 270 270 270 270 269 269 269 269 269 269 268 268 267 266 265 264 264 263 263 263 262 262 261 261 261 261 262 262 263 263 263 264 264 264 264 264 263 263 263 263 263 263 264 263 263 263 262 261 260 260 260 260 260 260 259 259 259 258 257 256 255 254 254 253 253 252 251 250 249 249 249 249 250 250
265 266 267 268 269 268 268 267 268 268 269 269 270 270 270 270 269 268 268 268 268 268 268 268 268 267 266 265 265 265 264 264 263 263 262 261 261 261 261 262 263 263 263 263 263 263 264 264 263 263 263 264 263 263 262 263 262 262 262 262 261 260 261 260 260 260 260 260 259 258 258 257 256 255 254 253 252 252 251 251 250 249 249 249 249 249
267 267 268 269 270 270 270 269 269 269 268 268 268 268 269 269 269 269 269 269 268 268 268 268 268 268 268 267 266 265 265 264 263 263 262 261 260 259 260 260 261 262 263 263 263 263 263 264 264 263 262 263 264 263 262 262 262 262 262 262 262 261 261 261 261 260 260 260 259 259 258 257 256 255 254 253 253 252 251 251 251 250 250 249 249 249
269 269 269 269 270 270 271 271 271 271 271 271 270 269 268 268 268 269 269 270 270 270 270 269 269 269 269 269 269 267 266 265 264 263 262 261 260 259 259 259 260 261 262 263 263 263 263 264 264 264 263 263 264 264 264 263 263 263 263 263 262 262 261 261 260 260 260 259 259 259 258 258 257 256 255 254 253 253 251 250 250 250 250 249 249 249
269 269 268 269 269 270 270 271 272 273 273 274 274 274 273 273 272 271 270 269 268 269 269 269 268 268 269 268 268 268 267 266 265 265 264 263 262 261 261 261 261 261 262 263 264 264 265 265 266 265 265 264 264 265 265 266 266 266 266 265 264 263 262 261 260 259 259 259 259 259 259 258 257 256 256 255 254 253 252 251 250 250 250 250 249 249
269 268 268 268 268 269 270 270 271 271 272 272 274 275 275 275 275 274 274 272 271 270 269 268 267 267 266 265 265 266 266 267 267 267 266 265 264 264 263 263 263 263 263 263 264 264 265 266 267 267 267 266 266 266 266 267 267 268 268 268 267 266 264 264 263 261 259 258 258 258 258 258 258 257 256 255 255 254 253 252 251 251 251 250 250 250
267 266 266 266 266 267 268 268 268 269 270 270 271 271 272 273 273 274 275 274 274 273 272 271 269 267 266 265 265 265 265 265 266 267 268 268 268 268 267 265 265 264 264 263 263 263 263 264 265 266 267 267 267 266 267 267 267 267 267 268 268 268 267 266 265 263 261 259 258 258 258 258 259 258 257 256 255 255 254 253 251 250 250 250 250 251
265 265 265 265 264 265 265 266 266 267 267 268 268 269 269 270 271 272 272 273 273 272 271 271 270 268 268 267 265 264 264 264 264 265 266 267 268 268 268 268 266 265 264 264 263 263 263 263 263 264 265 266 266 266 266 266 266 266 266 267 268 268 267 266 265 264 263 261 259 257 257 257 258 258 258 257 256 255 255 254 252 250 249 249 250 250
265 265 265 264 264 263 263 264 265 266 266 266 267 267 268 269 270 270 271 271 271 270 270 270 269 267 267 266 265 264 264 264 264 264 265 265 266 267 268 268 268 268 267 265 264 264 264 264 264 264 264 264 265 265 265 265 266 265 265 266 266 267 267 266 265 265 264 263 262 259 257 257 257 257 257 257 256 255 255 254 253 252 250 249 249 249
264 264 264 264 264 264 264 264 265 267 268 268 268 268 267 267 268 270 271 271 270 270 270 269 268 267 267 267 266 265 265 265 265 264 264 265 265 266 266 267 267 269 270 270 269 267 266 265 264 264 264 264 264 264 265 265 265 265 265 265 265 266 266 266 266 265 265 264 264 263 261 259 258 258 257 257 256 255 255 254 253 253 252 251 250 249
265 265 265 265 266 267 267 268 268 268 268 268 269 269 269 269 269 270 271 271 271 270 270 269 269 270 271 270 269 268 267 266 265 264 264 264 264 264 265 264 264 265 267 269 270 270 269 268 266 265 265 264 263 263 263 263 263 263 263 264 264 264 265 265 265 265 266 265 265 264 264 262 261 260 259 258 257 257 256 255 255 254 253 252 251 250
267 267 268 268 269 270 270 270 269 269 268 268 270 271 273 273 273 272 271 270 270 270 271 271 271 272 273 273 271 269 268 267 266 265 265 265 264 263 263 263 263 263 263 264 266 268 269 269 269 267 266 265 264 263 263 263 263 263 263 263 263 263 263 264 264 264 265 265 264 264 263 263 262 261 261 260 259 258 257 257 256 256 255 253 252 250
269 269 269 269 270 271 271 271 270 269 269 270 272 274 274 273 273 272 271 271 272 273 272 271 272 273 273 271 270 270 270 270 268 266 265 264 264 264 263 262 262 261 261 261 261 263 265 266 267 268 267 266 265 264 264 263 263 263 262 262 262 263 263 263 263 263 263 264 264 263 263 262 262 262 261 261 260 259 258 258 257 256 255 255 254 252
269 269 269 269 270 271 272 272 272 272 272 273 274 273 271 271 271 272 273 274 274 274 273 273 274 273 271 270 271 272 272 271 270 268 267 266 264 263 262 262 261 261 261 260 260 260 261 262 263 264 265 266 265 265 264 264 263 263 263 262 262 262 262 262 262 262 262 262 262 262 262 262 262 262 262 261 261 260 259 258 258 257 256 255 255 254
271 271 271 271 271 271 271 271 272 273 274 275 273 271 270 271 272 272 273 273 273 273 273 274 275 273 272 272 273 272 271 271 270 269 268 267 265 264 263 262 261 261 261 261 260 260 260 260 260 261 262 263 264 264 264 264 263 263 262 262 262 262 262 262 262 262 262 261 261 261 261 261 262 262 262 262 262 261 261 260 259 258 257 256 255 254
272 272 272 272 271 271 270 271 271 273 274 274 272 271 272 273 273 272 272 272 272 273 274 274 273 272 272 272 272 272 272 271 270 270 269 268 268 267 266 265 264 263 262 261 260 260 260 260 259 260 260 261 262 262 263 263 263 263 262 262 262 262 262 261 261 260 260 260 260 260 260 260 260 260 261 261 261 261 261 261 260 260 259 258 257 255
272 273 273 273 273 272 271 271 271 272 273 272 272 272 273 272 272 272 272 271 272 272 272 272 272 271 271 271 272 272 272 272 271 271 270 270 269 269 269 268 267 266 264 263 261 261 260 260 259 259 260 260 261 261 262 262 262 262 262 262 262 261 261 261 260 260 259 259 259 258 258 258 259 259 259 260 260 260 260 260 260 260 260 260 260 259
271 272 274 274 275 275 274 274 273 273 272 272 272 272 272 272 272 272 272 271 271 271 271 271 270 270 270 271 272 272 273 273 273 272 272 271 271 271 271 270 270 269 268 266 265 263 262 261 260 259 259 259 260 260 260 261 261 262 262 262 261 261 260 260 260 260 259 259 258 258 258 258 257 258 258 258 258 259 259 259 259 259 259 259 260 260
271 272 273 274 275 276 276 276 276 275 274 274 273 273 272 272 271 271 271 271 271 272 272 272 271 271 271 271 271 272 273 273 274 274 274 274 273 273 273 272 272 271 270 269 268 266 265 263 262 261 260 260 259 259 259 260 260 261 261 261 261 261 260 260 259 259 259 258 258 258 258 258 258 257 257 257 258 258 258 258 259 259 259 259 259 259
272 272 273 274 274 275 275 276 276 276 276 275 275 274 273 272 271 271 270 270 271 272 272 273 273 273 273 273 272 272 272 272 273 273 274 275 275 275 275 274 273 273 272 270 269 268 267 266 264 263 262 261 261 260 259 259 259 260 260 260 260 260 260 259 258 258 257 257 258 258 258 258 258 258 258 258 258 258 258 258 258 259 259 260 260 259
273 273 273 274 275 275 276 276 277 277 276 276 275 274 274 273 272 272 271 271 271 272 272 272 273 273 273 273 273 273 273 273 273 273 274 275 275 275 275 275 275 274 272 271 270 269 268 266 265 264 263 262 261 261 260 259 259 258 258 258 258 259 259 258 258 257 257 257 257 257 257 257 257 257 258 258 258 258 258 258 258 258 259 259 260 260
274 274 274 275 275 276 276 277 277 277 277 276 275 274 274 274 274 274 274 274 274 273 273 273 272 272 272 273 273 273 273 273 274 274 274 275 275 275 275 275 275 274 273 272 271 270 268 267 266 264 263 262 261 261 261 260 259 258 258 258 258 258 258 258 258 258 258 257 257 257 257 257 257 257 257 257 257 257 258 258 258 258 258 258 259 259
275 275 275 274 274 275 275 275 276 276 276 275 275 275 275 276 276 276 276 276 275 275 274 274 273 273 273 272 273 273 273 273 274 274 274 274 274 274 274 274 273 274 273 273 272 271 270 268 267 266 264 263 262 262 261 261 260 260 259 259 259 259 258 258 258 259 259 258 258 258 257 257 257 257 256 256 256 256 257 257 258 258 258 258 258 258
275 275 275 275 275 275 275 274 274 274 274 274 275 275 276 276 276 277 276 276 275 274 274 274 274 274 273 273 273 272 272 272 272 272 273 273 274 274 273 273 273 273 273 273 272 271 270 269 268 267 266 265 263 262 261 261 260 260 259 259 259 259 258 258 258 258 257 257 257 257 257 256 256 256 256 256 255 255 255 256 256 257 257 256 256 256
275 275 276 276 276 275 275 274 274 274 274 274 274 275 276 276 275 275 275 274 274 274 273 273 273 273 273 273 273 272 272 272 271 271 271 272 272 273 273 273 273 273 273 272 271 271 270 269 268 267 266 265 263 262 261 260 259 258 258 257 257 257 257 257 257 256 256 256 256 256 256 256 256 255 255 255 255 255 255 255 255 255 255 255 254 254
274 275 276 276 276 276 276 275 275 274 274 274 275 275 274 274 273 273 273 273 273 273 273 273 273 273 273 272 271 271 271 271 271 271 271 271 272 272 272 273 273 272 272 272 271 270 270 269 268 267 266 266 264 263 262 261 259 259 258 257 256 256 256 257 257 257 257 257 258 258 257 257 256 255 255 255 255 255 254 254 254 254 254 254 253 252
274 274 275 275 276 276 277 277 277 276 276 275 275 274 273 272 272 272 272 272 273 273 273 273 273 273 272 272 271 271 271 271 271 271 271 270 270 271 271 271 271 271 270 270 270 270 269 268 267 266 266 266 265 264 262 261 259 258 257 257 256 256 256 257 257 257 258 259 259 259 258 257 257 256 256 255 255 255 254 254 253 253 253 253 252 251
273 274 274 275 275 276 277 278 278 277 277 276 275 273 272 271 271 271 272 272 272 273 273 273 273 272 272 272 273 272 272 271 270 269 269 268 268 268 268 268 269 269 269 269 270 270 269 268 267 265 265 264 264 263 262 261 259 256 255 254 255 255 256 257 258 259 260 260 260 259 258 257 257 256 256 255 255 254 254 254 254 253 252 252 252 252
273 273 274 274 274 275 276 276 276 276 276 276 276 275 273 272 272 272 272 272 272 272 273 273 273 273 273 273 272 271 271 271 270 270 269 269 268 267 266 265 265 266 267 268 269 269 269 269 268 267 265 265 265 264 264 262 261 258 257 257 257 257 257 257 258 258 258 258 257 257 256 255 255 255 255 255 254 254 253 253 253 253 253 253 254 255
272 273 273 274 274 274 274 273 273 274 275 275 275 275 275 275 275 275 274 274 273 273 272 272 272 273 273 273 272 271 271 270 270 269 269 268 267 266 265 264 264 264 266 266 267 268 269 270 269 269 268 267 266 265 264 263 262 261 260 260 260 260 260 259 258 258 257 256 254 253 252 252 252 252 252 253 253 253 252 252 252 253 254 254 255 257
272 272 273 273 274 273 273 272 272 273 274 275 275 275 275 276 277 278 277 276 275 274 273 273 273 272 272 272 272 271 271 270 269 268 267 267 266 266 266 266 266 265 265 266 266 267 268 268 268 268 268 267 267 267 266 265 264 262 260 259 259 259 259 258 258 257 256 254 253 252 251 251 250 250 250 250 251 251 251 251 251 252 252 252 253 254
274 273 273 273 273 273 273 273 273 274 274 275 275 275 276 277 278 279 279 278 277 275 273 273 273 272 271 270 270 270 269 268 268 267 267 266 267 267 267 267 267 267 267 267 267 268 268 267 267 267 267 267 267 267 267 267 265 263 260 259 258 258 257 256 255 253 252 251 251 252 252 251 250 250 250 250 250 251 250 250 249 248 248 249 250 251
274 274 273 273 273 273 273 274 275 275 275 274 275 277 277 277 277 277 277 277 276 276 275 274 273 273 272 270 269 268 268 268 268 268 268 267 267 267 267 268 268 268 268 268 268 269 269 269 268 267 267 267 268 268 267 266 264 263 262 261 260 258 256 254 252 250 250 250 251 251 251 251 252 252 252 252 252 252 251 251 250 249 248 249 250 250
Height
10581 10582 10585 10588 10589 10587 10585 10586 10587 10587 10588 10589 10590 10591 10591 10592 10594 10597 10599 10600 10601 10602 10602 10603 10602 10602 10605 10607 10605 10604 10603 10602 10602 10602 10602 10602 10602 10603 10603 10602 10602 10602 10603 10603 10602 10602 10604 10605 10606 10606 10606 10607 10608 10609 10611 10612 10614 10615 10616 10617 10618 10618 10617 10618 10618 10619 10622 10623 10625 10627 10628 10629 10631 10632 10634 10635 10636 10637 10639 10641 10643 10645 10646 10648 10650 10651
10575 10577 10582 10584 10583 10581 10581 10581 10582 10582 10583 10584 10584 10585 10586 10588 10590 10593 10595 10597 10597 10597 10597 10597 10597 10597 10600 10602 10600 10599 10599 10599 10599 10599 10598 10597 10597 10598 10598 10598 10598 10599 10599 10598 10597 10598 10599 10600 10600 10601 10601 10602 10603 10604 10605 10607 10609 10611 10611 10612 10613 10613 10613 10613 10614 10615 10617 10618 10620 10621 10623 10624 10626 10627 10629 10630 10632 10633 10635 10637 10639 10640 10642 10644 10645 10647
10570 10573 10577 10577 10577 10577 10576 10576 10577 10577 10577 10578 10579 10580 10581 10583 10586 10589 10591 10592 10592 10591 10591 10592 10592 10592 10594 10597 10596 10594 10594 10595 10595 10595 10595 10594 10594 10594 10594 10594 10594 10595 10595 10594 10594 10595 10595 10595 10596 10596 10597 10598 10599 10599 10601 10603 10605 10606 10607 10608 10609 10609 10610 10610 10610 10611 10613 10614 10616 10617 10618 10620 10621 10623 10624 10626 10627 10629 10631 10633 10635 10636 10638 10640 10641 10643
10565 10569 10571 10571 10571 10571 10571 10571 10571 10571 10572 10573 10574 10575 10576 10578 10581 10584 10586 10587 10587 10586 10587 10587 10587 10587 10589 10591 10592 10591 10590 10591 10591 10592 10591 10591 10591 10591 10590 10590 10591 10591 10591 10591 10591 10591 10591 10591 10591 10592 10593 10594 10594 10596 10598 10600 10601 10602 10603 10604 10605 10606 10607 10607 10607 10608 10610 10611 10612 10613 10615 10616 10617 10619 10620 10621 10623 10625 10627 10628 10630 10632 10634 10635 10637 10639
10562 10565 10566 10566 10566 10566 10566 10566 10566 10566 10567 10568 10569 10570 10571 10573 10576 10577 10579 10580 10581 10581 10582 10582 10582 10582 10582 10584 10587 10588 10586 10585 10586 10587 10587 10588 10588 10588 10588 10587 10588 10588 10587 10587 10586 10586 10586 10586 10587 10588 10589 10589 10591 10593 10596 10597 10598 10598 10599 10600 10601 10602 10603 10604 10604 10605 10607 10608 10609 10610 10611 10612 10614 10615 10617 10618 10619 10621 10622 10624 10626 10628 10629 10631 10633 10635
10559 10560 10561 10561 10561 10561 10561 10560 10560 10561 10562 10563 10564 10564 10566 10568 10569 10570 10571 10573 10575 10576 10577 10577 10577 10577 10576 10576 10579 10581 10581 10581 10581 10582 10583 10584 10586 10586 10586 10585 10584 10583 10582 10581 10581 10581 10581 10582 10583 10584 10585 10585 10587 10590 10593 10594 10595 10595 10596 10597 10598 10599 10600 10600 10601 10603 10605 10606 10606 10607 10608 10609 10611 10612 10614 10615 10616 10617 10619 10620 10622 10624 10625 10627 10629 10630
10555 10556 10556 10556 10556 10555 10555 10555 10556 10557 10557 10557 10558 10559 10560 10562 10563 10564 10564 10566 10568 10570 10572 10572 10572 10571 10570 10569 10571 10573 10574 10575 10577 10578 10579 10581 10582 10582 10581 10580 10580 10579 10577 10576 10576 10576 10577 10579 10580 10580 10581 10582 10584 10587 10589 10590 10591 10592 10592 10594 10595 10596 10597 10597 10599 10600 10602 10602 10603 10604 10605 10606 10608 10609 10610 10612 10613 10614 10615 10616 10618 10620 10622 10624 10625 10627
10550 10552 10551 10551 10551 10550 10550 10550 10551 10552 10552 10552 10553 10554 10555 10556 10557 10558 10559 10560 10562 10564 10565 10565 10566 10567 10565 10562 10563 10566 10567 10569 10571 10573 10575 10577 10577 10576 10575 10576 10576 10575 10573 10573 10572 10571 10573 10576 10577 10577 10578 10579 10581 10582 10584 10586 10587 10588 10589 10590 10591 10592 10593 10594 10595 10597 10598 10599 10599 10600 10602 10603 10604 10605 10606 10608 10609 10610 10612 10613 10615 10617 10618 10620 10621 10623
10545 10547 10547 10546 10545 10544 10545 10546 10546 10547 10547 10547 10548 10549 10550 10551 10552 10553 10554 10555 10556 10557 10558 10558 10560 10562 10562 10557 10556 10560 10561 10563 10565 10567 10569 10570 10570 10570 10571 10571 10570 10568 10567 10568 10567 10566 10569 10572 10573 10573 10575 10576 10577 10578 10579 10581 10582 10584 10585 10586 10587 10588 10589 10590 10592 10593 10594 10595 10596 10597 10598 10599 10600 10601 10602 10603 10605 10606 10608 10610 10611 10613 10614 10616 10617 10618
10539 10540 10541 10540 10539 10539 10540 10541 10541 10542 10541 10541 10543 10544 10545 10546 10547 10548 10549 10549 10551 10552 10551 10552 10555 10557 10559 10555 10551 10553 10555 10556 10558 10560 10561 10563 10563 10564 10565 10564 10562 10561 10561 10561 10561 10562 10565 10567 10568 10569 10570 10571 10572 10573 10575 10576 10577 10579 10580 10581 10582 10583 10584 10586 10587 10588 10590 10591 10592 10593 10594 10595 10596 10597 10597 10598 10600 10601 10603 10605 10607 10608 10610 10611 10613 10614
10533 10533 10534 10534 10533 10533 10535 10535 10536 10536 10536 10536 10537 10538 10540 10541 10542 10543 10544 10544 10546 10547 10546 10547 10551 10552 10554 10552 10548 10547 10548 10549 10551 10553 10554 10555 10556 10557 10558 10557 10557 10556 10554 10554 10556 10558 10560 10562 10563 10563 10564 10565 10566 10567 10569 10570 10572 10573 10574 10575 10576 10577 10579 10580 10582 10583 10585 10586 10587 10588 10590 10591 10591 10592 10593 10594 10595 10596 10598 10600 10601 10603 10605 10606 10608 10609
10527 10526 10527 10528 10527 10528 10529 10529 10530 10530 10530 10531 10532 10533 10534 10535 10536 10537 10537 10538 10540 10541 10541 10543 10546 10547 10548 10547 10544 10543 10543 10543 10545 10546 10547 10549 10549 10550 10551 10551 10552 10551 10548 10548 10551 10553 10554 10556 10557 10558 10559 10559 10560 10561 10562 10564 10565 10566 10567 10569 10570 10572 10573 10575 10577 10578 10580 10581 10582 10583 10585 10586 10587 10588 10589 10590 10590 10592 10593 10595 10597 10598 10599 10601 10602 10604
10520 10520 10520 10521 10521 10521 10522 10523 10523 10524 10525 10525 10526 10527 10528 10529 10530 10530 10530 10532 10534 10535 10536 10538 10540 10541 10542 10541 10540 10539 10538 10537 10538 10539 10540 10541 10542 10542 10543 10544 10545 10545 10543 10543 10545 10546 10547 10549 10550 10552 10552 10552 10553 10555 10556 10557 10558 10559 10560 10562 10564 10566 10568 10570 10571 10573 10574 10576 10577 10578 10580 10581 10582 10583 10584 10585 10586 10587 10589 10590 10592 10593 10594 10596 10597 10599
10513 10513 10514 10514 10514 10514 10515 10516 10517 10518 10519 10519 10520 10520 10521 10522 10523 10523 10524 10526 10527 10529 10531 10532 10534 10535 10535 10535 10535 10534 10533 10533 10532 10533 10534 10534 10535 10535 10535 10537 10538 10538 10537 10537 10539 10540 10541 10542 10544 10545 10545 10545 10546 10547 10548 10550 10552 10553 10554 10556 10558 10560 10562 10563 10565 10567 10569 10571 10572 10573 10575 10576 10578 10579 10580 10581 10582 10583 10584 10585 10587 10588 10589 10590 10592 10593
10506 10507 10508 10508 10508 10508 10508 10509 10511 10512 10512 10512 10513 10514 10515 10515 10516 10517 10517 10518 10520 10522 10524 10525 10527 10527 10527 10527 10528 10528 10528 10528 10527 10527 10527 10527 10528 10528 10528 10529 10530 10531 10531 10531 10532 10533 10534 10535 10537 10538 10538 10538 10539 10540 10541 10543 10545 10546 10548 10549 10552 10554 10555 10556 10558 10560 10562 10564 10566 10568 10570 10571 10573 10574 10575 10575 10577 10578 10579 10580 10581 10583 10584 10585 10586 10588
10500 10500 10501 10502 10502 10502 10502 10503 10504 10505 10505 10506 10507 10508 10507 10507 10509 10510 10510 10510 10512 10515 10517 10518 10519 10519 10518 10519 10520 10521 10521 10522 10523 10522 10522 10521 10521 10521 10521 10521 10521 10522 10524 10524 10524 10525 10527 10529 10531 10532 10532 10531 10532 10533 10534 10536 10537 10539 10541 10542 10544 10546 10548 10549 10550 10552 10554 10557 10559 10562 10564 10565 10566 10567 10568 10569 10571 10572 10573 10574 10575 10577 10578 10579 10580 10581
10494 10493 10494 10496 10496 10495 10495 10495 10496 10497 10497 10498 10499 10499 10499 10500 10502 10502 10502 10503 10504 10507 10509 10510 10510 10511 10511 10511 10512 10513 10514 10515 10516 10517 10516 10516 10515 10514 10514 10513 10512 10513 10515 10516 10517 10517 10518 10521 10524 10525 10524 10524 10524 10526 10528 10529 10530 10532 10533 10535 10536 10538 10540 10542 10543 10545 10546 10549 10552 10554 10556 10557 10559 10560 10561 10563 10564 10566 10567 10568 10569 10571 10572 10572 10574 10575
10489 10488 10488 10489 10490 10490 10489 10488 10488 10489 10489 10489 10490 10491 10491 10492 10493 10493 10494 10495 10496 10497 10500 10500 10500 10502 10503 10503 10503 10505 10506 10507 10508 10508 10509 10509 10508 10507 10506 10506 10505 10506 10506 10508 10509 10509 10509 10511 10516 10517 10516 10516 10516 10518 10520 10521 10522 10524 10525 10528 10529 10530 10532 10535 10536 10537 10539 10541 10543 10546 10547 10549 10551 10553 10554 10556 10557 10559 10561 10562 10563 10564 10565 10566 10567 10568
10484 10483 10482 10482 10483 10483 10483 10482 10481 10482 10482 10481 10482 10482 10483 10484 10485 10486 10486 10487 10488 10488 10490 10491 10491 10493 10494 10493 10494 10496 10497 10497 10498 10499 10500 10502 10502 10501 10500 10499 10498 10499 10499 10501 10502 10501 10500 10502 10506 10509 10508 10508 10509 10511 10511 10513 10514 10515 10516 10519 10521 10523 10525 10527 10529 10530 10531 10533 10535 10537 10538 10540 10543 10545 10547 10548 10549 10551 10553 10555 10556 10558 10559 10560 10561 10562
10477 10478 10476 10475 10474 10475 10475 10476 10475 10475 10475 10474 10475 10475 10475 10475 10476 10478 10479 10479 10480 10480 10482 10482 10483 10484 10484 10484 10486 10487 10487 10487 10488 10490 10492 10493 10494 10493 10493 10492 10491 10491 10491 10492 10493 10493 10492 10492 10497 10500 10499 10499 10501 10503 10503 10503 10504 10505 10507 10509 10512 10514 10517 10519 10521 10522 10524 10525 10526 10528 10530 10532 10535 10537 10538 10539 10541 10543 10545 10547 10548 10550 10551 10552 10553 10554
10470 10471 10470 10468 10467 10467 10467 10468 10468 10467 10467 10468 10468 10468 10468 10468 10468 10469 10471 10472 10472 10473 10474 10475 10476 10476 10475 10476 10478 10478 10477 10477 10478 10480 10482 10483 10485 10485 10485 10485 10484 10483 10483 10483 10484 10484 10484 10484 10487 10491 10492 10491 10491 10492 10493 10494 10495 10496 10497 10499 10503 10506 10509 10511 10513 10514 10516 10517 10518 10519 10521 10523 10525 10527 10528 10530 10532 10534 10537 10538 10540 10542 10543 10544 10545 10546
10463 10463 10463 10462 10460 10460 10460 10460 10460 10459 10459 10459 10460 10460 10460 10461 10461 10462 10464 10465 10465 10465 10467 10468 10468 10468 10467 10468 10468 10468 10468 10468 10469 10471 10472 10473 10475 10476 10477 10477 10477 10476 10475 10475 10475 10475 10476 10477 10478 10481 10483 10484 10483 10482 10483 10485 10486 10487 10488 10490 10493 10497 10499 10501 10503 10506 10507 10508 10509 10510 10511 10513 10514 10516 10518 10521 10523 10525 10527 10529 10531 10532 10534 10535 10536 10537
10455 10456 10456 10456 10454 10453 10453 10454 10453 10452 10452 10451 10451 10452 10452 10453 10454 10455 10456 10457 10458 10459 10460 10460 10461 10461 10461 10460 10460 10460 10459 10460 10461 10463 10463 10464 10466 10467 10468 10469 10469 10469 10468 10468 10468 10467 10468 10468 10470 10472 10474 10475 10476 10475 10474 10475 10477 10478 10479 10481 10483 10486 10489 10491 10494 10496 10498 10499 10500 10501 10502 10503 10503 10506 10510 10512 10514 10516 10518 10520 10522 10523 10524 10525 10527 10529
10447 10448 10449 10449 10448 10447 10447 10447 10447 10446 10446 10446 10445 10445 10444 10445 10445 10446 10447 10449 10450 10453 10452 10452 10454 10455 10453 10453 10454 10453 10452 10452 10453 10454 10454 10456 10457 10458 10460 10460 10461 10461 10461 10461 10461 10461 10461 10461 10462 10463 10465 10466 10468 10468 10467 10468 10470 10471 10470 10471 10472 10474 10478 10481 10483 10485 10488 10490 10491 10491 10493 10492 10492 10496 10500 10502 10503 10506 10508 10510 10513 10515 10515 10516 10518 10519
10440 10441 10442 10442 10442 10441 10441 10441 10440 10440 10440 10440 10440 10439 10438 10438 10438 10438 10439 10440 10443 10445 10443 10442 10445 10446 10445 10446 10447 10446 10445 10445 10445 10445 10446 10447 10448 10449 10450 10451 10452 10452 10453 10453 10454 10454 10455 10455 10455 10456 10457 10457 10459 10460 10460 10460 10462 10463 10462 10462 10462 10464 10468 10470 10472 10473 10476 10479 10481 10482 10483 10482 10482 10485 10488 10491 10494 10495 10497 10501 10503 10505 10506 10507 10508 10510
10432 10433 10434 10435 10435 10436 10435 10433 10434 10434 10434 10435 10434 10433 10432 10431 10431 10431 10432 10433 10435 10436 10435 10435 10436 10436 10436 10437 10438 10437 10438 10438 10439 10439 10438 10438 10439 10439 10439 10440 10441 10442 10443 10444 10445 10445 10446 10448 10448 10449 10449 10450 10450 10451 10452 10452 10453 10455 10455 10454 10454 10455 10457 10460 10461 10462 10463 10466 10469 10472 10473 10473 10473 10474 10476 10480 10483 10484 10486 10489 10491 10493 10496 10498 10500 10501
10425 10426 10426 10427 10427 10429 10428 10427 10427 10427 10428 10428 10428 10427 10426 10425 10424 10424 10425 10426 10425 10426 10428 10428 10425 10427 10428 10427 10427 10428 10429 10431 10431 10432 10431 10431 10431 10431 10431 10430 10430 10430 10432 10434 10435 10437 10438 10439 10439 10440 10441 10442 10442 10442 10442 10443 10444 10445 10445 10445 10446 10446 10447 10449 10450 10451 10452 10454 10457 10460 10462 10463 10463 10464 10466 10468 10471 10472 10474 10476 10478 10481 10484 10488 10491 10492
10418 10419 10419 10418 10419 10421 10421 10421 10420 10421 10421 10421 10420 10420 10419 10418 10418 10417 10418 10417 10415 10417 10421 10417 10414 10418 10419 10416 10417 10420 10421 10424 10425 10424 10424 10423 10424 10424 10424 10423 10422 10421 10421 10422 10424 10426 10428 10430 10430 10431 10431 10432 10433 10433 10433 10434 10434 10435 10435 10436 10436 10437 10438 10439 10440 10441 10442 10444 10446 10448 10450 10452 10453 10454 10455 10457 10459 10461 10462 10464 10466 10469 10474 10478 10480 10482
10410 10411 10411 10411 10411 10412 10413 10413 10413 10413 10414 10414 10413 10412 10410 10410 10412 10411 10409 10408 10405 10407 10410 10406 10405 10411 10411 10406 10407 10409 10412 10415 10416 10415 10416 10416 10416 10416 10416 10416 10416 10415 10414 10413 10412 10413 10415 10418 10419 10421 10421 10422 10423 10423 10423 10423 10424 10424 10425 10426 10427 10428 10428 10429 10430 10431 10432 10434 10436 10437 10439 10441 10442 10444 10445 10446 10448 10450 10451 10453 10456 10459 10463 10466 10467 10471
10402 10403 10403 10403 10404 10405 10404 10405 10405 10405 10406 10407 10406 10404 10402 10402 10402 10401 10399 10397 10395 10398 10400 10397 10398 10405 10403 10395 10393 10395 10399 10403 10405 10406 10407 10406 10406 10407 10407 10407 10407 10408 10408 10407 10406 10404 10404 10405 10406 10408 10410 10411 10412 10413 10413 10413 10413 10414 10415 10416 10417 10418 10419 10420 10421 10421 10422 10424 10426 10427 10429 10430 10431 10433 10434 10435 10437 10439 10440 10443 10446 10448 10451 10452 10454 10459
10394 10395 10395 10395 10397 10398 10397 10395 10396 10396 10398 10401 10400 10397 10395 10392 10390 10388 10388 10387 10387 10390 10390 10386 10391 10399 10393 10380 10379 10384 10386 10389 10392 10394 10395 10396 10396 10396 10396 10397 10397 10398 10399 10400 10399 10398 10397 10395 10395 10395 10396 10398 10399 10401 10402 10402 10403 10404 10405 10406 10406 10407 10408 10409 10411 10411 10412 10413 10414 10416 10418 10419 10421 10422 10423 10425 10426 10428 10430 10433 10435 10436 10438 10440 10442 10446
10386 10387 10387 10387 10389 10392 10389 10385 10386 10386 10389 10395 10394 10388 10383 10381 10380 10380 10380 10379 10377 10377 10377 10377 10383 10388 10379 10368 10370 10376 10376 10376 10377 10380 10383 10384 10384 10385 10385 10386 10386 10387 10388 10389 10390 10390 10389 10388 10387 10385 10385 10386 10387 10389 10390 10391 10392 10393 10394 10395 10397 10397 10398 10399 10400 10401 10401 10402 10403 10405 10406 10408 10410 10411 10412 10414 10415 10417 10419 10421 10423 10425 10427 10429 10430 10432
10377 10377 10378 10377 10381 10385 10382 10378 10376 10377 10381 10387 10383 10375 10372 10372 10373 10373 10372 10369 10365 10364 10366 10369 10373 10373 10366 10360 10361 10364 10364 10364 10365 10366 10368 10369 10370 10371 10373 10375 10376 10377 10378 10379 10379 10379 10379 10379 10378 10377 10376 10375 10376 10377 10378 10379 10380 10381 10383 10384 10386 10387 10388 10389 10390 10391 10391 10392 10393 10394 10395 10397 10399 10400 10401 10403 10404 10406 10408 10410 10411 10413 10415 10417 10419 10421
10367 10367 10367 10368 10371 10374 10374 10371 10369 10370 10374 10374 10368 10364 10364 10364 10362 10362 10361 10358 10354 10354 10358 10360 10360 10359 10356 10352 10350 10350 10352 10353 10353 10353 10354 10354 10355 10358 10360 10362 10365 10366 10367 10367 10367 10367 10367 10367 10367 10366 10366 10365 10365 10365 10366 10366 10367 10369 10371 10373 10374 10375 10376 10378 10379 10381 10381 10381 10382 10383 10384 10386 10388 10390 10390 10392 10393 10395 10397 10398 10399 10401 10404 10405 10407 10409
10358 10356 10356 10356 10358 10362 10363 10361 10360 10364 10365 10360 10356 10355 10355 10353 10351 10351 10349 10347 10345 10346 10348 10349 10348 10347 10344 10342 10340 10340 10340 10340 10340 10340 10340 10341 10342 10344 10346 10348 10350 10352 10353 10354 10355 10355 10355 10356 10356 10355 10355 10355 10355 10355 10354 10354 10356 10358 10360 10361 10363 10363 10364 10365 10367 10368 10369 10369 10370 10371 10374 10376 10378 10379 10381 10381 10383 10384 10386 10387 10389 10390 10392 10394 10396 10397
10349 10348 10346 10346 10346 10348 10350 10349 10350 10353 10353 10349 10347 10346 10344 10342 10341 10340 10337 10335 10336 10336 10336 10336 10336 10335 10334 10332 10331 10330 10328 10327 10326 10325 10326 10328 10330 10331 10333 10334 10336 10337 10338 10340 10342 10342 10342 10343 10344 10344 10344 10344 10344 10344 10344 10343 10345 10348 10349 10349 10350 10351 10351 10353 10354 10354 10354 10356 10357 10360 10362 10365 10367 10369 10370 10371 10373 10374 10375 10376 10378 10379 10381 10383 10385 10385
10340 10339 10338 10337 10336 10337 10337 10337 10338 10340 10340 10338 10336 10334 10333 10332 10330 10328 10326 10325 10325 10325 10323 10323 10323 10323 10323 10323 10322 10321 10319 10317 10313 10311 10311 10314 10316 10318 10320 10321 10322 10324 10325 10326 10327 10328 10328 10329 10331 10331 10332 10332 10332 10332 10332 10333 10335 10337 10338 10338 10338 10338 10339 10341 10341 10341 10340 10342 10345 10348 10350 10353 10355 10358 10359 10361 10362 10364 10364 10365 10367 10369 10370 10372 10373 10374
10330 10329 10329 10328 10327 10327 10325 10326 10327 10327 10327 10326 10323 10321 10321 10319 10317 10316 10316 10316 10317 10315 10312 10311 10311 10311 10311 10310 10310 10310 10309 10307 10303 10299 10300 10302 10303 10304 10305 10307 10309 10310 10311 10312 10313 10314 10315 10316 10318 10319 10319 10319 10319 10319 10320 10323 10325 10326 10328 10327 10326 10326 10328 10328 10328 10328 10328 10331 10334 10336 10339 10341 10344 10346 10348 10349 10351 10352 10353 10355 10357 10358 10359 10360 10362 10363
10319 10319 10319 10318 10317 10316 10315 10315 10315 10314 10313 10313 10311 10309 10307 10305 10304 10304 10304 10307 10308 10305 10302 10302 10301 10300 10299 10298 10298 10297 10296 10295 10292 10288 10289 10292 10291 10291 10292 10293 10294 10296 10296 10297 10299 10301 10302 10304 10305 10307 10307 10307 10307 10306 10307 10310 10313 10315 10316 10316 10315 10315 10316 10315 10314 10315 10318 10320 10323 10326 10328 10331 10333 10334 10336 10338 10339 10340 10341 10344 10346 10347 10349 10351 10351 10351
10307 10308 10308 10307 10306 10305 10304 10304 10304 10301 10300 10299 10297 10295 10294 10293 10292 10291 10292 10296 10296 10292 10291 10291 10289 10288 10288 10288 10287 10286 10284 10283 10281 10278 10278 10279 10280 10280 10280 10280 10281 10282 10283 10284 10286 10288 10290 10291 10293 10295 10295 10295 10295 10294 10296 10298 10300 10303 10304 10304 10304 10305 10304 10302 10303 10305 10307 10310 10312 10315 10318 10320 10322 10323 10325 10326 10328 10329 10331 10332 10334 10336 10338 10341 10341 10341
10294 10295 10296 10295 10295 10294 10294 10294 10293 10290 10287 10286 10284 10283 10282 10282 10280 10280 10281 10283 10282 10279 10278 10277 10275 10276 10277 10276 10276 10276 10274 10272 10271 10268 10266 10266 10268 10269 10269 10268 10269 10270 10271 10272 10273 10275 10277 10279 10281 10283 10283 10283 10284 10285 10285 10286 10290 10292 10293 10293 10294 10293 10291 10291 10293 10296 10297 10299 10301 10304 10306 10309 10311 10312 10313 10314 10317 10319 10320 10321 10323 10325 10328 10329 10330 10330
10281 10281 10282 10282 10282 10283 10283 10283 10282 10279 10276 10274 10273 10273 10273 10272 10270 10269 10269 10268 10268 10267 10266 10265 10263 10263 10264 10265 10265 10264 10263 10262 10261 10259 10257 10255 10256 10257 10256 10257 10259 10260 10260 10261 10262 10263 10265 10268 10269 10270 10271 10272 10273 10274 10274 10276 10280 10281 10281 10282 10283 10280 10279 10281 10283 10285 10286 10288 10290 10292 10295 10297 10299 10300 10301 10303 10305 10308 10310 10311 10313 10315 10316 10317 10319 10320
10269 10268 10268 10268 10269 10270 10270 10270 10269 10268 10265 10264 10264 10264 10264 10261 10259 10258 10257 10256 10254 10254 10254 10253 10252 10252 10252 10253 10253 10253 10252 10252 10251 10250 10249 10247 10247 10247 10246 10246 10248 10249 10250 10251 10251 10252 10254 10256 10258 10259 10260 10260 10261 10262 10264 10267 10270 10271 10271 10272 10270 10267 10268 10270 10271 10273 10275 10277 10279 10282 10284 10287 10288 10289 10290 10291 10294 10297 10299 10301 10303 10304 10305 10307 10310 10312
10259 10257 10257 10255 10254 10256 10257 10256 10255 10255 10255 10255 10255 10255 10253 10250 10247 10246 10247 10246 10243 10242 10242 10242 10242 10242 10241 10242 10242 10242 10242 10242 10241 10240 10240 10239 10238 10238 10237 10236 10237 10239 10239 10239 10240 10241 10243 10246 10248 10248 10249 10250 10250 10252 10254 10257 10260 10261 10262 10261 10258 10256 10258 10259 10260 10262 10265 10267 10270 10273 10275 10277 10277 10278 10280 10281 10284 10286 10289 10292 10293 10293 10295 10298 10301 10302
10248 10247 10247 10246 10243 10243 10244 10244 10242 10242 10243 10243 10243 10243 10241 10239 10236 10235 10236 10236 10234 10231 10231 10232 10233 10231 10229 10230 10232 10233 10233 10233 10232 10231 10231 10230 10229 10229 10229 10228 10227 10228 10229 10228 10229 10230 10233 10236 10239 10240 10240 10240 10240 10242 10245 10247 10250 10252 10251 10249 10246 10246 10248 10250 10251 10254 10257 10259 10262 10263 10265 10266 10267 10268 10270 10272 10274 10276 10279 10282 10283 10284 10287 10289 10291 10292
10237 10237 10237 10237 10235 10234 10235 10234 10230 10228 10229 10229 10229 10228 10228 10227 10225 10225 10227 10227 10226 10223 10221 10222 10223 10221 10220 10220 10222 10223 10223 10222 10222 10222 10221 10221 10221 10220 10219 10219 10218 10217 10218 10219 10220 10220 10222 10226 10229 10230 10231 10231 10231 10232 10235 10237 10240 10242 10241 10238 10237 10238 10241 10243 10244 10247 10250 10252 10253 10254 10254 10256 10256 10258 10260 10262 10264 10267 10270 10272 10273 10274 10277 10280 10281 10283
10228 10228 10228 10228 10228 10227 10227 10223 10219 10217 10217 10215 10214 10213 10213 10214 10216 10217 10218 10218 10217 10215 10213 10212 10212 10211 10211 10211 10212 10213 10213 10212 10212 10212 10211 10211 10212 10210 10209 10209 10209 10208 10209 10211 10212 10211 10212 10216 10219 10221 10222 10223 10222 10223 10226 10228 10230 10231 10231 10230 10229 10232 10235 10237 10238 10240 10243 10244 10244 10244 10244 10246 10247 10249 10251 10252 10255 10258 10261 10262 10263 10265 10268 10271 10273 10274
10220 10220 10218 10219 10219 10219 10216 10212 10209 10208 10207 10204 10202 10201 10200 10202 10205 10207 10208 10208 10207 10206 10205 10204 10203 10202 10202 10201 10200 10202 10204 10203 10202 10203 10202 10201 10200 10199 10197 10198 10201 10202 10202 10202 10202 10203 10205 10208 10210 10211 10212 10213 10213 10213 10216 10218 10220 10222 10223 10222 10222 10225 10228 10229 10230 10232 10234 10234 10233 10233 10235 10237 10239 10241 10243 10244 10247 10250 10252 10253 10255 10258 10262 10264 10266 10267
10213 10211 10210 10210 10209 10207 10204 10200 10199 10200 10199 10194 10191 10190 10191 10193 10194 10195 10196 10197 10197 10196 10195 10195 10194 10194 10193 10192 10190 10192 10194 10194 10192 10191 10192 10191 10189 10188 10188 10189 10192 10194 10194 10194 10194 10196 10198 10199 10200 10201 10202 10203 10203 10204 10206 10209 10211 10212 10214 10214 10215 10218 10220 10221 10222 10224 10224 10223 10222 10223 10226 10229 10231 10233 10234 10236 10238 10241 10244 10246 10250 10253 10255 10256 10258 10259
10203 10202 10201 10201 10200 10196 10193 10189 10188 10192 10192 10185 10179 10180 10183 10186 10187 10187 10185 10184 10184 10184 10185 10185 10184 10183 10183 10183 10181 10182 10184 10183 10181 10180 10182 10182 10180 10179 10179 10181 10183 10185 10186 10186 10187 10188 10189 10190 10191 10192 10193 10193 10194 10195 10198 10199 10201 10202 10204 10206 10208 10210 10211 10212 10213 10213 10212 10211 10212 10216 10219 10221 10223 10224 10226 10228 10231 10234 10237 10240 10243 10246 10247 10248 10250 10252
10193 10191 10191 10191 10191 10188 10184 10180 10180 10182 10183 10177 10172 10171 10174 10176 10179 10180 10176 10173 10172 10172 10173 10175 10175 10173 10173 10172 10172 10172 10174 10174 10172 10172 10174 10173 10171 10170 10172 10173 10175 10176 10177 10178 10179 10180 10180 10180 10181 10182 10183 10184 10185 10187 10189 10190 10192 10194 10196 10198 10200 10201 10201 10202 10202 10202 10202 10204 10206 10209 10211 10213 10215 10217 10219 10222 10225 10227 10230 10233 10236 10239 10240 10242 10243 10245